User: anonymous   Login
Location: Cranford
(40.6578°N, 74.3024°W)
Time: 02:33:57
(UTC+00:00)
Language:

STARLINK-5186 - Orbit

View from above orbital plane
View from above orbital plane
View from above satellite
View from above satellite

Ground track
Ground track

The orbit data is extracted from the following two-line orbital elements,

1 54177C 22141W   24106.77270833  .00021658  00000+0  13589-2 0  1063
2 54177  53.2155 234.6790 0001320  69.6640 218.1471 15.08795330    11
Epoch (UTC): 15 April 2024 18:32:42
Eccentricity: 0.0001320
inclination: 53.2155°
perigee height: 539 km
apogee height: 541 km
right ascension of ascending node: 234.6790°
argument of perigee: 69.6640°
revolutions per day: 15.08795330
mean anomaly at epoch: 218.1471°
orbit number at epoch: 1

The dashed part of the orbit path shows where the satellite is in the earth's shadow,  

DLR